Regional Weather Roundup
Issued by NWS

Home | Current Version | Previous Version | Graphics & Text | Print | Product List | Glossary On
Versions: 1 2 3 4 5 6 7 8 9 10 11 12 13 14 15 16 17 18 19 20 21 22 23 24 25 26 27 28 29 30 31 32 33 34 35 36 37 38 39 40 41 42 43 44 45 46 47 48 49 50
000
ASUS43 KLSX 040310
RWRMO

WEATHER SUMMARY FOR MISSOURI
NATIONAL WEATHER SERVICE SPRINGFIELD MO
1000 PM CDT MON AUG 03 2015

NOTE: "FAIR" INDICATES FEW OR NO CLOUDS BELOW 12,000 FEET WITH NO
       SIGNIFICANT WEATHER AND/OR OBSTRUCTIONS TO VISIBILITY.
       CURRENT SKY AND/OR WEATHER CONDITIONS ARE NOT AVAILABLE FOR
       CHILLICOTHE AND FARMINGTON.

MOZ001>031-035>038-043-044-053-054-040400-
...NORTHERN AND WESTERN MISSOURI...

CITY           SKY/WX    TMP DP  RH WIND       PRES   REMARKS
KANSAS CTY INT PTCLDY    77  70  79 E13       29.94R
KANSAS C DTWN  PTCLDY    80  70  71 E9        29.92R
LEE`S SUMMIT   PTCLDY    79  69  71 NE10      29.94R
ST JOSEPH      PTCLDY    76  69  79 E7        29.94R
CHILLICOTHE      N/A     74  70  87 CALM      29.96R
KIRKSVILLE     MOCLDY    71  66  84 N5        29.97R

$$
MOZ066>068-077>081-088>096-101>105-040400-
...SOUTHWEST MISSOURI...

CITY           SKY/WX    TMP DP  RH WIND       PRES   REMARKS
SPRINGFIELD    MOCLDY    78  67  68 SW6       29.97R
JOPLIN         PTCLDY    78  66  66 S5        29.95R

$$
MOZ032>034-039>042-045>050-055>058-069>072-040400-
...CENTRAL MISSOURI...

CITY           SKY/WX    TMP DP  RH WIND       PRES   REMARKS
COLUMBIA       CLEAR     78  71  79 NE7       29.95R
JEFFERSON CITY CLEAR     77  70  79 CALM      29.92R
ROLLA          CLEAR     73  70  90 CALM      29.95R
SEDALIA        PTCLDY    79  72  79 E5        29.95R
WHITEMAN AFB   PTCLDY    78  71  80 E3        29.92R
WARRENSBURG    PTCLDY    77  70  78 NE5       29.93R
OSAGE BEACH    PTCLDY    75  72  88 CALM      29.94R

$$
MOZ051-052-059>065-040400-
...EAST CENTRAL MISSOURI...

CITY           SKY/WX    TMP DP  RH WIND       PRES   REMARKS
ST LOUIS INTL  PTCLDY    82  69  64 N3        29.94R
SPIRIT OF STL  CLEAR     77  73  87 CALM      29.92R
ST CHARLES     PTCLDY    78  71  79 CALM      29.93R

$$
MOZ072>076-082>087-097>100-106>115-040400-
...SOUTH CENTRAL AND SOUTHEAST MISSOURI...

CITY           SKY/WX    TMP DP  RH WIND       PRES   REMARKS
CAPE GIRARDEAU CLEAR     77  75  93 CALM      29.92R
FARMINGTON     CLEAR     75  72  88 CALM      29.99R
POPLAR BLUFF   CLEAR     80  74  81 CALM      29.91R
WEST PLAINS    PTCLDY    77  71  82 CALM      29.99R

$$



USA.gov is the U.S. government's official web portal to all federal, state and local government web resources and services.